Back to catalog

DELTA 1 DEB

AliveSSO
NORAD 40758·DEBRIS·🇺🇸 United States

Launched Jul 29, 1976 from Vandenberg Space Force Base

Loading…

Next Passes (next 24 hours)

TLE

FreshSource: Space-Track

Epoch: Sep 14, 2026, 03:18 UTC

1 40758U 76077GB  26257.13789649 -.00000023  00000-0  20334-3 0  9991
2 40758 102.5374 228.2078 0089099 308.8523 112.3605 12.25504159573008

Track DELTA 1 DEB in real time with AllMySat

Download on the App Store